Hourly Data Report for July 07, 2021

GORE BAY CLIMATE
ONTARIO
Current Station Operator: ECCC - MSC

45°53'00.000" N
82°34'00.000" W
188.60 m
6092920
71956
TZE

Download Data

Hourly Data (July 2021)
Hourly Data Report for July 7, 2021
TIME
LST
Temp Definition
°C
Dew Point Definition
°C
Rel Hum Definition
%
Precip. Amount Definition
mm

Wind Dir Definition
10's deg

Wind Spd Definition
km/h
Visibility Definition
km
Stn Press Definition
kPa
Hmdx Definition


Wind Chill Definition


Weather Definition


00:00 16.1 13.7 85 0.5 9 7   99.40     LegendNANA
01:00 15.3 13.3 88 1.9 4 7   99.39     LegendNANA
02:00 15.2 13.5 90 2.7 6 15   99.37     LegendNANA
03:00 14.4 12.4 88 1.1 5 20   99.37     LegendNANA
04:00 14.1 12.2 89 1.4 6 21   99.44     LegendNANA
05:00 13.8 12.1 89 0.8 6 17   99.47     LegendNANA
06:00 13.6 11.0 84 0.0 7 16   99.50     LegendNANA
07:00 13.7 11.1 84 0.0 7 14   99.51     LegendNANA
08:00 14.4 11.1 81 0.0 7 13   99.51     LegendNANA
09:00 14.8 9.5 71 0.0 7 20   99.56     LegendNANA
10:00 15.5 9.3 67 0.0 7 21   99.52     LegendNANA
11:00 16.6 8.7 60 0.0 7 21   99.53     LegendNANA
12:00 16.9 7.7 54 0.0 8 18   99.53     LegendNANA
13:00 16.7 7.2 54 0.0 10 18   99.53     LegendNANA
14:00 15.8 9.6 67 0.0 14 10   99.52     LegendNANA
15:00 15.0 11.8 81 0.2 9 16   99.36     LegendNANA
16:00 15.0 11.1 77 0.2 14 9   99.41     LegendNANA
17:00 15.2 11.9 81 0.0 13 16   99.34     LegendNANA
18:00 15.1 10.7 75 0.0 13 13   99.39     LegendNANA
19:00 14.9 11.3 79 0.0 12 5   99.39     LegendNANA
20:00 14.7 11.1 79 0.0 9 8   99.37     LegendNANA
21:00 14.0 11.7 86 0.3 9 8   99.39     LegendNANA
22:00 14.5 11.3 81 0.3 8 15   99.36     LegendNANA
23:00 14.3 10.7 79 0.0 9 9   99.38     LegendNANA

Notes on Data Quality.

Legend

  • E = Estimated
  • M = Missing
  • NA = Not Available*
  • [empty] = Indicates an unobserved value
Date modified: